DW9665 Sarajevo BA current weather conditions

sailwx.info

Wind at 2 knots gusting 6

Air temperature 27.2° C
Dewpoint 4.9° C

Last reported at 2016-Aug-31 13:47 UTC.
Time now 2016-Aug-31 14:19 UTC

Location: N 43°50' E 018°21'.
View on Google Maps.

See reports from other nearby stations

  
Tides and Currents Weather Stations Pressure Air Temp Water Temp Dewpoint Dewpoint Depression Visibility Wind Speed Wind Dir Waves Ship Positions
date/time (UTC)wind fromknots sea level pressurealtimeterstation pressurevisibilityair tempwater tempwave heightnotes
2016-Aug-31 13:47 27.2
2016-Aug-31 13:32 338 2 gusting 5 27.2
2016-Aug-31 13:17 270 2 gusting 8 26.7
2016-Aug-31 13:02 270 2 gusting 5 27.2
2016-Aug-31 12:47 270 2 gusting 5 27.8
2016-Aug-31 12:32 270 2 gusting 5 27.2
2016-Aug-31 12:17 270 1 gusting 5 26.7
2016-Aug-31 12:02 180 2 gusting 5 27.2
2016-Aug-31 11:47 180 3 gusting 4 27.2
2016-Aug-31 11:32 135 1 gusting 3 27.2
2016-Aug-31 11:17 292 26.7
2016-Aug-31 11:02 158 26.1
2016-Aug-31 10:47 292 26.1
2016-Aug-31 10:32 180 0 gusting 4 25.6
2016-Aug-31 10:17 135 0 gusting 3 25.0
2016-Aug-31 10:02 315 1 gusting 3 24.4
2016-Aug-31 09:47 270 1 gusting 2 24.4
2016-Aug-31 09:32 112 1 gusting 2 23.9
2016-Aug-31 09:17 068 0 gusting 2 23.3
2016-Aug-31 09:02 180 0 gusting 2 23.3
2016-Aug-31 08:47 090 0 gusting 1 23.3
2016-Aug-31 08:32 22.2
2016-Aug-31 08:18 338 21.7
2016-Aug-31 08:02 270 2 gusting 1 21.7
2016-Aug-31 07:47 180 0 gusting 1 21.7
2016-Aug-31 07:32 045 20.6
2016-Aug-31 07:17 180 0 gusting 2 20.6
2016-Aug-31 07:02 270 20.6
2016-Aug-31 06:47 158 19.4
2016-Aug-31 06:32 158 0 gusting 3 18.9
2016-Aug-31 06:17 180 0 gusting 1 17.8
2016-Aug-31 06:02 112 0 gusting 3 17.8
2016-Aug-31 05:47 135 17.8
2016-Aug-31 05:32 112 16.7
2016-Aug-31 05:17 158 16.7
2016-Aug-31 05:02 135 3 gusting 2 16.7
2016-Aug-31 04:47 180 16.7
2016-Aug-31 04:32 270 16.7
2016-Aug-31 04:17 270 0 gusting 0 16.7
2016-Aug-31 04:02 16.7
2016-Aug-31 03:47 16.7
2016-Aug-31 03:32 135 16.7
2016-Aug-31 03:17 270 17.2
2016-Aug-31 03:02 270 17.2
2016-Aug-31 02:47 180 17.2
2016-Aug-31 02:32 180 17.2
2016-Aug-31 02:17 180 17.8
2016-Aug-31 02:02 180 17.8
2016-Aug-31 01:47 180 17.8
2016-Aug-31 01:32 180 17.8
2016-Aug-31 01:17 180 18.3
2016-Aug-31 01:02 180 0 gusting 2 18.3
2016-Aug-31 00:47 180 0 gusting 2 18.3
2016-Aug-31 00:32 180 2 gusting 1 18.3
2016-Aug-31 00:17 270 0 gusting 1 18.3
2016-Aug-31 00:02 18.9
2016-Aug-30 23:47 338 1 gusting 2 18.9
2016-Aug-30 23:32 180 19.4
2016-Aug-30 23:17 180 19.4
2016-Aug-30 23:02 158 19.4
2016-Aug-30 22:47 158 19.4
2016-Aug-30 22:32 158 0 gusting 2 20.0
2016-Aug-30 22:17 270 1 gusting 1 20.0
2016-Aug-30 22:02 270 20.0
2016-Aug-30 21:47 270 20.6
2016-Aug-30 21:32 270 20.6
2016-Aug-30 21:17 270 20.6
2016-Aug-30 21:02 270 0 gusting 4 20.6
2016-Aug-30 20:47 270 0 gusting 2 21.1
2016-Aug-30 20:32 270 0 gusting 2 21.1
2016-Aug-30 20:17 338 1 gusting 2 21.1
2016-Aug-30 20:02 270 1 gusting 6 21.7
2016-Aug-30 19:47 315 3 gusting 3 21.7
2016-Aug-30 19:32 338 21.7
2016-Aug-30 19:17 270 22.2
2016-Aug-30 19:02 090 22.2
2016-Aug-30 18:47 292 1 gusting 4 22.8
2016-Aug-30 18:32 090 3 gusting 5 22.8
2016-Aug-30 18:17 045 1 gusting 3 23.3
2016-Aug-30 18:02 338 0 gusting 5 23.3
2016-Aug-30 17:47 315 3 gusting 6 23.3
2016-Aug-30 17:32 23.9
2016-Aug-30 17:17 022 0 gusting 7 23.9
2016-Aug-30 17:02 338 3 gusting 5 24.4
2016-Aug-30 16:47 338 4 gusting 6 24.4
2016-Aug-30 16:32 090 2 gusting 8 25.0
2016-Aug-30 16:17 292 4 gusting 6 25.6
2016-Aug-30 16:02 022 4 gusting 5 25.6
2016-Aug-30 15:47 022 1 gusting 6 26.1
2016-Aug-30 15:32 068 2 gusting 4 26.7
2016-Aug-30 15:17 292 3 gusting 8 26.7
2016-Aug-30 15:02 090 3 gusting 7 26.7
2016-Aug-30 14:47 270 5 gusting 5 27.8
2016-Aug-30 14:32 338 3 gusting 5 27.2
2016-Aug-30 14:17 27.2
2016-Aug-30 14:02 315 2 gusting 6 26.7
2016-Aug-30 13:47 270 4 gusting 5 27.8
2016-Aug-30 13:32 315 5 gusting 6 26.7
2016-Aug-30 13:17 112 2 gusting 5 27.2
2016-Aug-30 13:02 315 1 gusting 6 27.2
2016-Aug-30 12:47 338 4 gusting 6 26.7
2016-Aug-30 12:32 022 5 gusting 4 27.2
2016-Aug-30 12:17 338 2 gusting 8 27.2
2016-Aug-30 12:02 292 0 gusting 3 26.7
2016-Aug-30 11:47 180 0 gusting 6 25.6
2016-Aug-30 11:32 270 6 gusting 7 25.6
2016-Aug-30 11:17 270 3 gusting 5 25.6
2016-Aug-30 11:02 292 25.0
2016-Aug-30 10:47 292 0 gusting 5 24.4
2016-Aug-30 10:32 022 2 gusting 5 23.9
2016-Aug-30 10:17 112 3 gusting 5 23.9
2016-Aug-30 10:02 270 2 gusting 5 23.3
2016-Aug-30 09:47 270 2 gusting 6 23.3
2016-Aug-30 09:32 270 1 gusting 6 22.8
2016-Aug-30 09:17 292 6 gusting 5 22.2
2016-Aug-30 09:02 180 1 gusting 4 21.7
2016-Aug-30 08:47 270 2 gusting 3 21.1
2016-Aug-30 08:32 292 3 gusting 3 20.6
2016-Aug-30 08:17 292 3 gusting 4 20.0
2016-Aug-30 08:02 270 2 gusting 1 20.6
2016-Aug-30 07:47 270 20.6
2016-Aug-30 07:32 158 2 gusting 2 19.4
2016-Aug-30 07:17 112 0 gusting 2 18.9
2016-Aug-30 07:02 158 1 gusting 2 18.9
2016-Aug-30 06:47 270 1 gusting 2 18.3
2016-Aug-30 06:32 180 17.2
2016-Aug-30 06:17 180 17.2
2016-Aug-30 06:02 180 0 gusting 1 17.2
2016-Aug-30 05:47 180 16.7
2016-Aug-30 05:32 180 16.1
2016-Aug-30 05:17 180 15.6
2016-Aug-30 05:02 180 0 gusting 0 15.6
2016-Aug-30 04:47 180 15.0
2016-Aug-30 04:32 180 15.0
2016-Aug-30 04:17 180 15.0
2016-Aug-30 04:02 180 0 gusting 0 15.6
2016-Aug-30 03:47 15.6
2016-Aug-30 03:32 270 0 gusting 1 15.6
2016-Aug-30 03:17 270 0 gusting 1 15.6
2016-Aug-30 03:02 270 15.6
2016-Aug-30 02:47 270 0 16.1
2016-Aug-30 02:32 270 16.1
2016-Aug-30 02:17 270 0 gusting 1 16.1
2016-Aug-30 01:17 270 16.7
2016-Aug-30 01:02 270 16.7
2016-Aug-30 00:47 270 16.7
2016-Aug-30 00:17 270 17.2
2016-Aug-29 23:32 158 17.8
2016-Aug-29 23:17 270 18.3
2016-Aug-29 23:02 270 1 gusting 2 18.3
2016-Aug-29 22:47 158 1 gusting 1 18.3
2016-Aug-29 21:47 158 2 gusting 5 19.4
2016-Aug-29 21:32 270 0 gusting 1 19.4
2016-Aug-29 21:02 270 1 gusting 2 20.0
2016-Aug-29 20:47 270 1 gusting 3 20.0
2016-Aug-29 19:32 158 1 gusting 3 21.7
2016-Aug-29 19:17 158 0 gusting 2 21.7
2016-Aug-29 18:02 180 3 gusting 2 24.4
2016-Aug-29 17:32 158 0 gusting 3 25.6
2016-Aug-29 17:02 112 28.3
2016-Aug-29 16:47 270 28.9
2016-Aug-29 16:32 292 1 gusting 4 29.4
2016-Aug-29 16:17 180 29.4
2016-Aug-29 16:02 270 1 gusting 5 30.0
2016-Aug-29 15:17 292 2 gusting 6 29.4
2016-Aug-29 15:02 180 30.0
2016-Aug-29 14:47 270 3 gusting 8 30.0
2016-Aug-29 14:02 270 1 gusting 5 30.6